[[{"header":{"parameterUnit":"m.s-1","parameterCategory":1,"la1":30.2991,"la2":30.254,"lo1":-89.0895,"lo2":-89.0444,"dy":0.0017,"dx":0.0017,"nx":28,"ny":28,"refTime":"2026-01-07T09:00:00:Z","depth":0,"parameterNumber":2,"parameterNumberName":"U-component_of_WINDS"},"data":[0,0,0,0,0,0,0,0,0,0,0,0,0,0,0,0,0,0,0,0,0,0,0,0,0,0,0,0,0,0,0,0,0,0,0,0,0,0,0,0,0,0,0,0,0,0,0,0,0,0,0,0,0,0,0,0,0,0,1.1355,1.1355,0,1.1396,1.1396,1.1397,1.1401,1.14,1.14,1.1399,1.1444,1.1445,1.1447,0,0,0,0,0,0,0,0,0,0,0,0,0,1.1283,1.1285,1.1355,1.1355,1.1356,1.1396,1.1396,1.1397,1.1401,1.14,1.14,1.1399,1.1443,1.1445,1.1447,0,0,0,0,0,0,0,0,0,0,0,0,0,1.1318,1.1285,1.1355,1.1362,1.1364,1.1395,1.1396,1.1397,1.1401,1.14,1.14,1.1399,1.1443,1.1445,1.1447,1.1475,0,0,1.1455,1.1456,0,0,0,0,0,0,0,0,1.1316,1.1321,1.1361,1.1362,1.1363,1.1392,1.1387,1.1423,1.1401,1.1387,1.1399,1.1399,1.1427,1.1431,1.144,1.1477,1.1479,1.1455,1.1456,1.1457,1.1458,0,0,0,0,0,0,0,1.1314,1.1319,1.1371,1.1361,1.1363,1.1365,1.1369,1.1394,1.141,1.1388,1.1388,1.1393,1.1428,1.1438,1.1441,1.148,1.1455,1.1457,1.1458,1.1459,1.1543,1.1544,0,0,0,0,0,0,1.131,1.1317,1.137,1.1372,1.1338,1.1367,1.1372,1.1384,1.141,1.1413,1.1394,1.1393,1.1434,1.1439,1.1443,1.1478,1.1457,1.146,1.1461,1.1542,1.1543,1.1544,0,0,0,0,0,0,1.1308,1.1314,1.1368,1.1345,1.1352,1.1369,1.1382,1.1385,1.1395,1.1414,1.1417,1.14,1.1434,1.144,1.1467,1.1479,1.1461,1.1463,1.1541,1.1543,1.1544,1.1547,0,0,0,0,0,0,1.1306,1.1314,1.1323,1.1345,1.1353,1.139,1.1383,1.1386,1.1398,1.1398,1.1422,1.1425,1.1434,1.1464,1.147,1.1482,1.1465,1.154,1.1542,1.1543,1.1546,1.1548,1.155,0,0,0,0,0,1.1303,1.1323,1.1324,1.133,1.1365,1.1391,1.1396,1.1405,1.1399,1.141,1.1423,1.1424,1.1477,1.1466,1.1473,1.1487,1.154,1.1541,1.1543,1.1545,1.1548,1.155,0,0,0,0,0,0,1.1303,1.1326,1.1327,1.1354,1.137,1.1392,1.1405,1.1407,1.1426,1.1426,1.1437,1.1442,1.147,1.1481,1.1469,1.1516,1.1508,1.1511,1.1507,1.151,1.1512,1.1509,1.1467,0,0,0,0,0,1.1306,1.1324,1.1343,1.1365,1.1373,1.1388,1.1399,1.1405,1.1423,1.143,1.1445,1.1463,1.1484,1.1498,1.1518,1.1548,1.1554,1.1561,1.1563,1.1564,1.1567,1.1585,1.1589,1.155,1.155,1.155,0,0,1.1312,1.1327,1.1338,1.1366,1.1379,1.1399,1.1394,1.1414,1.1429,1.1434,1.1461,1.1472,1.1494,1.1523,1.1536,1.1533,1.1579,1.1567,1.1568,1.157,1.1587,1.1591,1.1594,1.1551,1.1551,1.1551,0,0,1.1333,1.1346,1.1366,1.138,1.14,1.141,1.1415,1.1436,1.1444,1.1471,1.1475,1.1494,1.1529,1.1544,1.1557,1.1586,1.1588,1.1592,1.1603,1.1621,1.1624,1.1626,1.1637,1.1641,1.1595,1.1595,1.1595,0,1.1339,1.1367,1.1376,1.1397,1.141,1.1414,1.1436,1.1449,1.1475,1.1484,1.148,1.1526,1.154,1.1573,1.1581,1.159,1.1597,1.1589,1.1622,1.1625,1.1628,1.1639,1.1643,1.1595,1.1595,1.1595,1.1595,0,1.1374,1.1394,1.1407,1.1432,1.1447,1.1467,1.1481,1.1495,1.15,1.151,1.1539,1.1557,1.1581,1.1589,1.1594,1.1624,1.1621,1.162,1.1612,1.1632,1.1642,1.1646,1.1596,1.1596,1.1595,1.1595,0,0,1.1395,1.1425,1.143,1.1442,1.1465,1.1481,1.1503,1.1527,1.1539,1.1557,1.1577,1.1607,1.1606,1.162,1.1627,1.1642,1.1665,1.1639,1.164,1.1644,1.17,1.1702,1.1706,1.1667,1.1668,1.1669,1.1699,0,1.1419,1.1457,1.1466,1.1499,1.1518,1.1524,1.1543,1.1561,1.1572,1.1591,1.1603,1.1625,1.1621,1.163,1.1645,1.1659,1.1677,1.1657,1.1687,1.1687,1.1681,1.1711,1.1712,1.174,1.1703,1.1703,1.1704,0,1.1452,1.1471,1.1505,1.1528,1.1536,1.1553,1.1576,1.1594,1.1614,1.1621,1.1638,1.1644,1.1668,1.166,1.1694,1.1681,1.1694,1.1703,1.1704,1.1707,1.1697,1.1716,1.1749,1.1753,1.171,1.171,1.1709,0,1.1464,1.1499,1.1524,1.1534,1.156,1.1572,1.1584,1.1604,1.1618,1.1638,1.1648,1.1671,1.1684,1.1703,1.1715,1.1708,1.175,1.1742,1.1757,1.1757,1.1765,1.1765,1.1801,1.1773,1.1773,1.1773,1.1773,0,1.149,1.1512,1.153,1.1546,1.157,1.1582,1.1606,1.1618,1.1636,1.1655,1.1662,1.168,1.1695,1.1716,1.1726,1.1754,1.176,1.1767,1.177,1.1767,1.1766,1.1775,1.1774,1.1774,1.1774,1.1774,1.1774,0,1.1508,1.1521,1.1549,1.1572,1.1579,1.1596,1.1616,1.1632,1.1644,1.1668,1.1675,1.1693,1.1718,1.1733,1.1764,1.1771,1.1802,1.1804,1.1795,1.1796,1.1811,1.181,1.1855,1.1862,1.1829,1.1829,1.183,0,1.1524,1.154,1.1565,1.1578,1.159,1.1611,1.1625,1.1638,1.1653,1.1678,1.1692,1.1717,1.1737,1.1777,1.1794,1.1819,1.1821,1.1835,1.1825,1.1822,1.1822,1.1821,1.1823,1.1837,1.1837,1.1838,1.1838,0,1.155,1.1556,1.1576,1.1599,1.1616,1.1634,1.1653,1.1663,1.168,1.1696,1.1721,1.1737,1.177,1.1795,1.1821,1.1835,1.184,1.1841,1.1846,1.1843,1.1837,1.1841,1.18,1.184,1.184,1.184,1.1839,1.1839,1.1568,1.1583,1.1603,1.1626,1.1641,1.1659,1.1675,1.1689,1.171,1.1737,1.1744,1.177,1.1792,1.1828,1.1842,1.1864,1.1862,1.1869,1.1871,1.1873,1.1873,1.1834,1.1869,1.1869,1.1869,1.1869,1.1869,0,1.1595,1.1609,1.1629,1.1655,1.1673,1.1675,1.1697,1.1712,1.1735,1.1755,1.1775,1.1805,1.183,1.1849,1.1876,1.189,1.1893,1.1896,1.1895,1.1899,1.1873,1.1867,1.1893,1.1893,1.1893,1.1893,1.1893,1.1893,1.1611,1.1638,1.1646,1.1681,1.1695,1.1721,1.1733,1.175,1.1765,1.1798,1.1819,1.1831,1.1851,1.1879,1.1903,1.1908,1.1918,1.1921,1.1927,1.1903,1.19,1.1898,1.1891,1.1923,1.1923,1.195,1.195,1.1951]},{"header":{"parameterUnit":"m.s-1","parameterCategory":1,"la1":30.2991,"la2":30.254,"lo1":-89.0895,"lo2":-89.0444,"dy":0.0017,"dx":0.0017,"nx":28,"ny":28,"refTime":"2026-01-07T09:00:00:Z","depth":0,"parameterNumber":3,"parameterNumberName":"V-component_of_WINDS"},"data":[0,0,0,0,0,0,0,0,0,0,0,0,0,0,0,0,0,0,0,0,0,0,0,0,0,0,0,0,0,0,0,0,0,0,0,0,0,0,0,0,0,0,0,0,0,0,0,0,0,0,0,0,0,0,0,0,0,0,2.0038,2.0038,0,2.0038,2.0038,2.0038,2.0014,2.0014,2.0013,2.0012,2.0012,2.0012,2.0013,0,0,0,0,0,0,0,0,0,0,0,0,0,2.0016,2.0017,2.0038,2.0038,2.0038,2.0038,2.0038,2.0038,2.0014,2.0014,2.0013,2.0012,2.0011,2.0012,2.0013,0,0,0,0,0,0,0,0,0,0,0,0,0,2.0022,2.0017,2.0038,2.0026,2.0025,2.0038,2.0038,2.0038,2.0014,2.0014,2.0013,2.0012,2.0011,2.0012,2.0013,2.0037,0,0,2.0016,2.0016,0,0,0,0,0,0,0,0,2.0022,2.0023,2.0028,2.0027,2.0026,2.0025,2.003,2.0038,2.0015,2.0018,2.0012,2.0011,2.0017,2.0017,2.0019,2.0037,2.0037,2.0016,2.0016,2.0016,2.0017,0,0,0,0,0,0,0,2.0021,2.0022,2.0038,2.0028,2.0027,2.002,2.002,2.0032,2.0023,2.0018,2.0016,2.0017,2.0016,2.0019,2.0019,2.0037,2.0016,2.0016,2.0017,2.0017,2.0076,2.0077,0,0,0,0,0,0,2.0022,2.0022,2.0038,2.0038,2.0021,2.0022,2.0021,2.0026,2.0023,2.0021,2.0018,2.0016,2.0018,2.0018,2.0019,2.0048,2.0016,2.0017,2.0018,2.0075,2.0076,2.0077,0,0,0,0,0,0,2.0022,2.0024,2.0038,2.003,2.0031,2.0023,2.0029,2.0027,2.0029,2.0022,2.0021,2.0022,2.0017,2.0018,2.0033,2.0047,2.0018,2.0018,2.0073,2.0075,2.0076,2.0105,0,0,0,0,0,0,2.0022,2.0024,2.0033,2.003,2.0032,2.0052,2.003,2.0028,2.0031,2.0028,2.0026,2.0024,2.0016,2.0032,2.0034,2.0048,2.0019,2.0072,2.0074,2.0076,2.0103,2.0108,2.0112,0,0,0,0,0,2.0021,2.0041,2.0034,2.0036,2.0043,2.0053,2.0054,2.0044,2.0032,2.0041,2.0037,2.0025,2.0045,2.0034,2.0036,2.005,2.0071,2.0073,2.0076,2.0101,2.0107,2.0112,0,0,0,0,0,0,2.0046,2.0041,2.0033,2.0052,2.0054,2.0049,2.0061,2.0051,2.0055,2.0052,2.004,2.0039,2.0057,2.0055,2.0042,2.0074,2.0056,2.0059,2.0075,2.008,2.0084,2.0085,2.002,0,0,0,0,0,2.0054,2.0063,2.0057,2.0076,2.0077,2.0069,2.0073,2.0065,2.0066,2.0066,2.0063,2.0063,2.007,2.0075,2.0081,2.0103,2.0102,2.0114,2.0118,2.0122,2.0124,2.0137,2.0142,2.0085,2.0085,2.0085,0,0,2.007,2.0068,2.0075,2.0081,2.0081,2.009,2.0069,2.008,2.0087,2.0067,2.0082,2.008,2.008,2.0099,2.0107,2.0098,2.014,2.0124,2.0127,2.0128,2.014,2.0145,2.015,2.0086,2.0086,2.0086,0,0,2.0105,2.0104,2.012,2.012,2.0121,2.0115,2.0119,2.0116,2.0114,2.0129,2.0115,2.0122,2.0134,2.0135,2.0137,2.0173,2.0162,2.0175,2.0197,2.021,2.0214,2.0218,2.0232,2.0236,2.0177,2.0178,2.0178,0,2.0125,2.0139,2.0129,2.0141,2.0144,2.0127,2.0143,2.0144,2.0146,2.0149,2.0138,2.0153,2.0152,2.0171,2.018,2.0182,2.0186,2.0175,2.0214,2.0218,2.0222,2.0234,2.0239,2.0179,2.0179,2.0179,2.0179,0,2.0164,2.0174,2.0187,2.019,2.0195,2.0208,2.02,2.0206,2.0198,2.0193,2.0209,2.0207,2.0212,2.0216,2.0208,2.0234,2.0229,2.0216,2.0198,2.0229,2.0241,2.0246,2.0182,2.0181,2.018,2.018,0,0,2.0215,2.0213,2.0218,2.0219,2.0219,2.0226,2.0239,2.0245,2.0251,2.0253,2.0263,2.0274,2.0263,2.0265,2.0257,2.0268,2.0297,2.0254,2.0254,2.0263,2.0327,2.0337,2.0343,2.029,2.029,2.0291,2.0327,0,2.0249,2.0272,2.0263,2.0287,2.0296,2.0281,2.0292,2.0293,2.0289,2.0297,2.0292,2.03,2.0285,2.0286,2.0296,2.0292,2.031,2.0289,2.03,2.03,2.0301,2.0349,2.0359,2.0393,2.0332,2.0332,2.0333,0,2.0293,2.0298,2.0322,2.0321,2.0324,2.0335,2.034,2.0347,2.0348,2.0344,2.0347,2.0337,2.035,2.0331,2.0349,2.0335,2.0338,2.0337,2.0338,2.034,2.0319,2.0352,2.0404,2.041,2.034,2.0339,2.0339,0,2.0328,2.0341,2.0357,2.0359,2.0358,2.0366,2.0365,2.0365,2.0369,2.0373,2.0376,2.0381,2.0385,2.0389,2.038,2.0368,2.0399,2.038,2.0397,2.0398,2.0405,2.0405,2.046,2.0406,2.0406,2.0406,2.0406,0,2.0368,2.0384,2.0374,2.0384,2.0401,2.0391,2.0408,2.0406,2.0406,2.0416,2.0402,2.0411,2.0399,2.0407,2.04,2.0416,2.0417,2.0415,2.0414,2.0417,2.0418,2.042,2.0418,2.0408,2.0407,2.0407,2.0407,0,2.0411,2.0405,2.0422,2.0419,2.0419,2.0432,2.043,2.0439,2.0435,2.0447,2.0449,2.0442,2.0451,2.0443,2.0451,2.0446,2.0468,2.0462,2.0468,2.0467,2.0485,2.0484,2.0544,2.0551,2.0493,2.0493,2.0494,0,2.0438,2.045,2.0449,2.0455,2.0455,2.0464,2.0469,2.0459,2.0464,2.0466,2.0476,2.0483,2.0489,2.0504,2.0499,2.0506,2.05,2.0521,2.0501,2.0505,2.0502,2.0502,2.0503,2.0525,2.0526,2.0527,2.0527,0,2.0485,2.0482,2.0489,2.0496,2.0502,2.0506,2.051,2.0515,2.0505,2.0511,2.0521,2.0525,2.0534,2.0542,2.0547,2.0546,2.0535,2.0533,2.0538,2.0542,2.0545,2.0545,2.048,2.0532,2.0531,2.0531,2.0531,2.0531,2.0521,2.0532,2.0533,2.0542,2.0544,2.0547,2.0556,2.0553,2.0561,2.0568,2.0561,2.0573,2.0573,2.0579,2.0579,2.0588,2.058,2.0586,2.0588,2.059,2.0593,2.0543,2.0589,2.0589,2.0588,2.0588,2.0588,0,2.0569,2.057,2.0578,2.0584,2.0591,2.058,2.0583,2.059,2.06,2.0602,2.0608,2.0619,2.0627,2.0623,2.063,2.0638,2.0633,2.064,2.064,2.064,2.06,2.0596,2.0644,2.0644,2.0644,2.0644,2.0644,2.0644,2.0595,2.0613,2.0609,2.0627,2.0627,2.0639,2.0642,2.0645,2.0647,2.066,2.0666,2.0664,2.0664,2.067,2.0677,2.0676,2.0679,2.0689,2.0685,2.0648,2.0643,2.0637,2.0634,2.0689,2.0689,2.0725,2.0726,2.0726]}]]